{"data":{"norad_id":64293,"epoch":"2026-09-20T22:00:44.235360Z","epoch_age_seconds":101486,"freshness":"FRESH","line1":"1 64293U 25123C   26263.91717865  .00011071  00000+0  37909-3 0  9990","line2":"2 64293  69.9997  59.7497 0003058 277.3375  82.7453 15.30421858 72146","mean_motion":15.30421858,"eccentricity":0.0003058,"inclination_deg":69.9997,"raan_deg":59.7497,"arg_perigee_deg":277.3375,"mean_anomaly_deg":82.7453,"bstar":0.00037909,"rev_number":7214,"period_min":94.091703700693,"perigee_km":472.45716893017,"apogee_km":476.64827396381,"semimajor_km":6852.689721447,"source":"CELESTRAK","updated_at":"2026-09-21T09:00:35.287900Z"}}